Location: Silverdale
(47.6506°N, 122.6941°W)
Time: 04:37:08
(UTC+00:00)

Altair - Pass Details

Date: 07 October 2022
Orbit: 1501 x 1682 km, 47.2° (Epoch: 04 December)

Event Time Altitude Azimuth Distance (km) Brightness Sun altitude
Rises 16:53:03 0° 286° (WNW) 4,857 9.6 22.9°
Reaches altitude 10° 16:56:10 10° 284° (WNW) 3,889 9.2 23.3°
Maximum altitude 17:06:03 68° 205° (SSW) 1,785 8.4 24.6°
Drops below altitude 10° 17:16:05 10° 126° (SE) 3,940 11.4 25.8°
Sets 17:19:16 0° 123° (ESE) 4,922 11.4 26.2°
